Location: Spor
(46.2167°N, 11.0500°E)
Time: 10:19:50
(UTC+00:00)

Meteor 2-10 Rocket - Pass Details

Date: 07 June 2020
Orbit: 733 x 885 km, 81.2° (Epoch: 10 July)

Event Time Altitude Azimuth Distance (km) Brightness Sun altitude
Rises 00:26:37 0° 341° (NNW) 3,243 7.6 -19.1°
Reaches altitude 10° 00:29:08 10° 334° (NNW) 2,292 6.6 -19.0°
Maximum altitude 00:33:49 37° 268° (W) 1,146 4.2 -18.7°
Enters shadow 00:35:16 30° 232° (SW) 1,296 4.2 -18.6°
